TimeMST,TemperatureF,Dew PointF,Humidity,Sea Level PressureIn,VisibilityMPH,Wind Direction,Wind SpeedMPH,Gust SpeedMPH,PrecipitationIn,Events,Conditions,WindDirDegrees,DateUTC
12:54 AM,59.0,55.9,90,29.93,10.0,SSE,6.9,-,0.05,Rain,Light Rain,150,2013-07-22 07:54:00
1:54 AM,59.0,55.9,90,29.91,10.0,NNE,3.5,-,0.00,,Overcast,20,2013-07-22 08:54:00
2:54 AM,60.1,55.0,83,29.90,10.0,Calm,Calm,-,N/A,,Mostly Cloudy,0,2013-07-22 09:54:00
3:54 AM,59.0,55.9,90,29.91,10.0,NE,3.5,-,N/A,,Mostly Cloudy,40,2013-07-22 10:54:00
4:54 AM,59.0,55.9,90,29.94,10.0,Calm,Calm,-,N/A,,Overcast,0,2013-07-22 11:54:00
5:54 AM,60.1,55.9,86,29.96,10.0,Calm,Calm,-,N/A,,Overcast,0,2013-07-22 12:54:00
6:54 AM,61.0,55.9,83,29.99,10.0,Calm,Calm,-,N/A,,Mostly Cloudy,0,2013-07-22 13:54:00
7:54 AM,63.0,57.0,81,30.01,10.0,SSW,4.6,-,N/A,,Overcast,210,2013-07-22 14:54:00
8:54 AM,64.0,59.0,84,30.05,10.0,SSW,5.8,-,N/A,,Overcast,200,2013-07-22 15:54:00
9:31 AM,66.2,60.8,83,30.29,10.0,SSW,5.8,-,N/A,,Overcast,200,2013-07-22 16:31:00
9:50 AM,66.2,59.0,78,30.30,10.0,SW,6.9,-,N/A,,Mostly Cloudy,220,2013-07-22 16:50:00
9:54 AM,66.9,60.1,79,30.04,10.0,SW,6.9,-,N/A,,Mostly Cloudy,230,2013-07-22 16:54:00
10:34 AM,66.2,59.0,78,30.31,10.0,SW,6.9,-,0.01,,Overcast,220,2013-07-22 17:34:00
10:54 AM,66.9,59.0,76,30.04,10.0,WSW,5.8,-,0.01,,Mostly Cloudy,240,2013-07-22 17:54:00
11:09 AM,66.2,59.0,78,30.31,10.0,SW,5.8,-,N/A,,Mostly Cloudy,230,2013-07-22 18:09:00
11:54 AM,68.0,57.9,70,30.04,10.0,WSW,6.9,-,N/A,,Overcast,240,2013-07-22 18:54:00
12:54 PM,69.1,57.0,65,30.02,10.0,Variable,4.6,-,N/A,,Mostly Cloudy,0,2013-07-22 19:54:00
1:01 PM,71.6,57.2,60,30.29,10.0,WSW,6.9,-,N/A,,Clear,240,2013-07-22 20:01:00
1:54 PM,75.0,57.9,55,29.98,10.0,SW,6.9,-,N/A,,Partly Cloudy,220,2013-07-22 20:54:00
2:54 PM,73.9,55.9,53,29.96,10.0,WSW,8.1,-,N/A,,Clear,250,2013-07-22 21:54:00
3:54 PM,73.9,55.0,52,29.94,10.0,WSW,9.2,-,N/A,,Mostly Cloudy,240,2013-07-22 22:54:00
4:54 PM,73.9,54.0,50,29.94,10.0,SW,5.8,-,0.00,,Mostly Cloudy,230,2013-07-22 23:54:00
5:54 PM,73.9,55.9,53,29.94,10.0,SW,10.4,-,N/A,,Mostly Cloudy,230,2013-07-23 00:54:00
6:54 PM,70.0,55.9,61,29.96,10.0,SW,6.9,-,N/A,,Clear,230,2013-07-23 01:54:00
7:54 PM,66.9,55.9,68,29.97,10.0,WSW,5.8,-,N/A,,Clear,250,2013-07-23 02:54:00
8:54 PM,66.0,57.0,73,30.00,10.0,WSW,3.5,-,N/A,,Clear,250,2013-07-23 03:54:00
9:54 PM,64.0,57.9,80,30.00,10.0,South,3.5,-,N/A,,Partly Cloudy,180,2013-07-23 04:54:00
10:54 PM,64.0,59.0,84,30.00,10.0,South,3.5,-,N/A,,Mostly Cloudy,170,2013-07-23 05:54:00
11:54 PM,62.1,59.0,90,30.02,10.0,ESE,3.5,-,N/A,,Mostly Cloudy,110,2013-07-23 06:54:00